Location: Blankensee
(53.5126°N, 14.3055°E)
Time: 16:23:47
(UTC+00:00)

Okean 1-7 Rocket - Pass Details

Date: 08 August 2020
Orbit: 617 x 648 km, 82.5° (Epoch: 19 September)

Event Time Altitude Azimuth Distance (km) Brightness Sun altitude
Rises 01:07:33 0° 350° (N) 2,908 7.8 -15.9°
Reaches altitude 10° 01:09:48 10° 353° (N) 1,999 7.0 -15.7°
Maximum altitude 01:14:12 66° 76° (ENE) 686 3.9 -15.4°
Enters shadow 01:18:33 10° 159° (SSE) 1,973 5.8 -15.0°
